Location: Holcomb Observatory and Planetarium
(39.8415°N, 86.1714°W)
Time: 14:58:35
(UTC-04:00)

ISS - Visible Passes

Search period start: 02 September 2015 00:00
Search period end: 12 September 2015 00:00
Orbit: 400 x 403 km, 51.6° (Epoch: 01 September)

Date Brightness Start Highest point End Pass type
(mag) Time Alt. Az. Time Alt. Az. Time Alt. Az.
08 Sep -0.9 06:04:41 10° S 06:06:58 18° SE 06:09:20 10° E visible
09 Sep -3.3 06:46:36 10° SW 06:49:52 89° NNW 06:53:08 10° NE visible
10 Sep -2.5 05:55:23 28° S 05:56:38 43° SE 05:59:45 10° ENE visible
11 Sep -0.8 05:04:32 18° ESE 05:04:32 18° ESE 05:06:04 10° E visible
11 Sep -2.6 06:37:08 13° W 06:39:44 39° NNW 06:42:50 10° NE visible
